Location: Asheville, NC
(35.6000°N, 82.5500°W)
Time: 19:11:37
(UTC-04:00)

Vanguard 1 Rocket - Pass Details

Date: 09 February 2018
Orbit: 652 x 4225 km, 34.3° (Epoch: 27 May)

Event Time Altitude Azimuth Distance (km) Brightness Sun altitude
Exits shadow 04:24:16 54° 260° (W) 4,270 10.2 -36.8°
Maximum altitude 04:32:04 86° 178° (S) 3,343 10.0 -35.2°
Drops below altitude 10° 04:47:08 10° 91° (E) 4,725 11.9 -32.2°
Sets 04:49:56 0° 91° (E) 5,375 12.5 -31.6°
